This demonstration page uses our WeatherBlox Daily Observations layout. Learn more.

Left ArrowRight Arrow

Hourly Observations for January 27, 2022

Temp ( °F °C ) Dew Point ( °F °C ) Humidity (%) Winds ( mph kmh ) Pressure ( in mb ) Visibility ( mi km ) Precip ( " mm )
12:53 am 00:53 Partly Cloudy 23 -5 17 -8.3 78 78 Calm 30.28 1025 10 16 0.00 0.00
1:53 am 01:53 Clear 14 -10 9 -12.8 80 80 Calm 30.30 1026 10 16 0.00 0.00
2:53 am 02:53 Partly Cloudy 13 -10.6 9 -12.8 84 84 NE 5 7 30.30 1026 10 16 0.00 0.00
3:53 am 03:53 Clear 9 -12.8 6 -14.4 88 88 NE 5 7 30.32 1027 10 16 0.00 0.00
4:53 am 04:53 Clear 10 -12.2 5 -15 80 80 ESE 3 6 30.34 1027 10 16 0.00 0.00
5:53 am 05:53 Partly Cloudy 7 -13.9 4 -15.6 87 87 NE 3 6 30.39 1029 10 16 0.00 0.00
6:53 am 06:53 Mostly Clear 5 -15 2 -16.7 87 87 Calm 30.42 1030 10 16 0.00 0.00
7:53 am 07:53 Cloudy 10 -12.2 5 -15 80 80 Calm 30.42 1030 10 16 0.00 0.00
8:53 am 08:53 Cloudy 14 -10 10 -12.2 84 84 Calm 30.43 1031 10 16 0.00 0.00
9:53 am 09:53 Mostly Cloudy 17 -8.3 12 -11.1 80 80 Calm 30.45 1031 10 16 0.00 0.00
10:53 am 10:53 Mostly Cloudy 22 -5.6 8 -13.3 55 55 NE 14 22 30.45 1031 10 16 0.00 0.00
11:53 am 11:53 Mostly Cloudy 23 -5 8 -13.3 53 53 NNE 12 19 30.45 1031 10 16 0.00 0.00
12:53 pm 12:53 Partly Cloudy 25 -3.9 10 -12.2 53 53 N 13 20 30.44 1031 10 16 0.00 0.00
1:53 pm 13:53 Sunny 26 -3.3 11 -11.7 53 53 NNE 17 28 30.50 1033 10 16 0.00 0.00
2:53 pm 14:53 Mostly Sunny 27 -2.8 11 -11.7 51 51 N 13 20 30.52 1034 10 16 0.00 0.00
3:53 pm 15:53 Sunny 26 -3.3 10 -12.2 51 51 NNE 7 11 30.57 1035 10 16 0.00 0.00
4:53 pm 16:53 Partly Cloudy 23 -5 10 -12.2 57 57 ENE 8 13 30.61 1037 10 16 0.00 0.00
5:53 pm 17:53 Clear 16 -8.9 7 -13.9 67 67 N 7 11 30.67 1039 10 16 0.00 0.00
6:53 pm 18:53 Clear 16 -8.9 7 -13.9 67 67 Calm 30.72 1040 10 16 0.00 0.00
7:53 pm 19:53 Clear 10 -12.2 4 -15.6 76 76 SSW 3 6 30.75 1041 10 16 0.00 0.00
8:53 pm 20:53 Clear 6 -14.4 2 -16.7 83 83 NE 6 9 30.78 1042 10 16 0.00 0.00
9:53 pm 21:53 Clear 2 -16.7 -2 -18.9 83 83 NE 5 7 30.79 1043 10 16 0.00 0.00
10:53 pm 22:53 Clear 7 -13.9 1 -17.2 76 76 E 8 13 30.75 1041 10 16 0.00 0.00
11:53 pm 23:53 Clear 1 -17.2 -5 -20.6 75 75 NE 7 11 30.80 1043 10 16 0.00 0.00

Powered by AerisWeather